Time,TemperatureF,DewpointF,PressureIn,WindDirection,WindDirectionDegrees,WindSpeedMPH,WindSpeedGustMPH,Humidity,HourlyPrecipIn,Conditions,Clouds,dailyrainin,SoftwareType,DateUTC
2013-04-06 00:00:00,32.2,25.2,30.11,SSE,150,3.0,5.0,75,0.00,,---,0.00,VWS V14.00,2013-04-06 05:00:00,
2013-04-06 00:05:00,32.2,25.5,30.11,South,172,0.0,3.0,76,0.00,,---,0.00,VWS V14.00,2013-04-06 05:05:00,
2013-04-06 00:10:00,32.1,25.4,30.11,South,172,0.0,3.0,76,0.00,,---,0.00,VWS V14.00,2013-04-06 05:10:00,
2013-04-06 00:15:00,32.1,25.7,30.11,South,172,0.0,3.0,77,0.00,,---,0.00,VWS V14.00,2013-04-06 05:15:00,
2013-04-06 00:20:00,32.1,25.4,30.11,South,172,0.0,2.0,76,0.00,,---,0.00,VWS V14.00,2013-04-06 05:20:00,
2013-04-06 00:25:00,32.1,25.4,30.10,South,173,3.0,3.0,76,0.00,,---,0.00,VWS V14.00,2013-04-06 05:25:00,
2013-04-06 00:30:00,32.0,25.6,30.10,SSE,150,1.0,5.0,77,0.00,,---,0.00,VWS V14.00,2013-04-06 05:30:00,
2013-04-06 00:35:00,31.7,25.6,30.10,SE,130,9.0,9.0,78,0.00,,---,0.00,VWS V14.00,2013-04-06 05:35:00,
2013-04-06 00:40:00,31.5,26.4,30.10,SSE,162,3.0,10.0,81,0.00,,---,0.00,VWS V14.00,2013-04-06 05:40:00,
2013-04-06 00:45:00,31.2,26.6,30.10,SSE,153,0.0,10.0,83,0.00,,---,0.00,VWS V14.00,2013-04-06 05:45:00,
2013-04-06 00:50:00,30.8,26.8,30.11,SSE,147,0.0,4.0,85,0.00,,---,0.00,VWS V14.00,2013-04-06 05:50:00,
2013-04-06 00:55:00,30.5,27.1,30.10,SE,138,1.0,6.0,87,0.00,,---,0.00,VWS V14.00,2013-04-06 05:55:00,
2013-04-06 01:00:00,30.2,27.1,30.10,South,169,0.0,6.0,88,0.00,,---,0.00,VWS V14.00,2013-04-06 06:00:00,
2013-04-06 01:05:00,30.0,27.2,30.10,SSE,151,0.0,0.0,89,0.00,,---,0.00,VWS V14.00,2013-04-06 06:05:00,
2013-04-06 01:10:00,29.8,27.0,30.10,SSE,151,0.0,1.0,89,0.00,,---,0.00,VWS V14.00,2013-04-06 06:10:00,
2013-04-06 01:15:00,29.7,27.1,30.10,SSW,198,2.0,2.0,90,0.00,,---,0.00,VWS V14.00,2013-04-06 06:15:00,
2013-04-06 01:20:00,29.7,27.4,30.09,SSE,148,0.0,0.0,91,0.00,,---,0.00,VWS V14.00,2013-04-06 06:20:00,
2013-04-06 01:25:00,29.7,27.4,30.09,SE,144,0.0,2.0,91,0.00,,---,0.00,VWS V14.00,2013-04-06 06:25:00,
2013-04-06 01:30:00,29.6,27.3,30.09,SE,140,0.0,3.0,91,0.00,,---,0.00,VWS V14.00,2013-04-06 06:30:00,
2013-04-06 01:35:00,29.6,27.6,30.09,SE,140,0.0,0.0,92,0.00,,---,0.00,VWS V14.00,2013-04-06 06:35:00,
2013-04-06 01:40:00,29.6,27.6,30.08,SE,140,0.0,0.0,92,0.00,,---,0.00,VWS V14.00,2013-04-06 06:40:00,
2013-04-06 01:45:00,29.6,27.6,30.08,SE,142,0.0,2.0,92,0.00,,---,0.00,VWS V14.00,2013-04-06 06:45:00,
2013-04-06 01:50:00,29.6,27.6,30.08,SE,138,0.0,0.0,92,0.00,,---,0.00,VWS V14.00,2013-04-06 06:50:00,
2013-04-06 01:55:00,29.6,27.6,30.07,North,9,0.0,2.0,92,0.00,,---,0.00,VWS V14.00,2013-04-06 06:55:00,
2013-04-06 02:00:00,29.6,27.6,30.07,NNW,346,0.0,2.0,92,0.00,,---,0.00,VWS V14.00,2013-04-06 07:00:00,
2013-04-06 02:06:00,29.6,27.8,30.07,NNW,346,0.0,0.0,93,0.00,,---,0.00,VWS V14.00,2013-04-06 07:06:00,
2013-04-06 02:11:00,29.5,27.7,30.07,NNW,335,0.0,1.0,93,0.00,,---,0.00,VWS V14.00,2013-04-06 07:11:00,
2013-04-06 02:16:00,29.6,27.8,30.06,NW,315,0.0,3.0,93,0.00,,---,0.00,VWS V14.00,2013-04-06 07:16:00,
2013-04-06 02:21:00,29.5,27.7,30.06,NW,312,0.0,1.0,93,0.00,,---,0.00,VWS V14.00,2013-04-06 07:21:00,
2013-04-06 02:26:00,29.6,27.8,30.06,SSE,163,1.0,1.0,93,0.00,,---,0.00,VWS V14.00,2013-04-06 07:26:00,
2013-04-06 02:31:00,29.5,27.7,30.05,SSE,158,0.0,2.0,93,0.00,,---,0.00,VWS V14.00,2013-04-06 07:31:00,
2013-04-06 02:36:00,29.6,27.8,30.05,SSE,157,0.0,0.0,93,0.00,,---,0.00,VWS V14.00,2013-04-06 07:36:00,
2013-04-06 02:41:00,29.6,27.8,30.04,South,169,0.0,2.0,93,0.00,,---,0.00,VWS V14.00,2013-04-06 07:41:00,
2013-04-06 02:46:00,29.6,27.8,30.04,South,172,0.0,2.0,93,0.00,,---,0.00,VWS V14.00,2013-04-06 07:46:00,
2013-04-06 02:52:00,29.6,27.8,30.03,North,351,0.0,2.0,93,0.00,,---,0.00,VWS V14.00,2013-04-06 07:52:00,
2013-04-06 02:57:00,29.6,27.8,30.03,ESE,103,0.0,2.0,93,0.00,,---,0.00,VWS V14.00,2013-04-06 07:57:00,
2013-04-06 03:02:00,29.6,27.8,30.03,NNE,22,0.0,5.0,93,0.00,,---,0.00,VWS V14.00,2013-04-06 08:02:00,
2013-04-06 03:07:00,29.6,28.1,30.02,WNW,284,1.0,2.0,94,0.00,,---,0.00,VWS V14.00,2013-04-06 08:07:00,
2013-04-06 03:12:00,29.6,28.1,30.02,SSE,150,0.0,4.0,94,0.00,,---,0.00,VWS V14.00,2013-04-06 08:12:00,
2013-04-06 03:17:00,29.7,28.2,30.02,SSW,193,0.0,4.0,94,0.00,,---,0.00,VWS V14.00,2013-04-06 08:17:00,
2013-04-06 03:22:00,29.6,28.1,30.02,SSE,157,0.0,3.0,94,0.00,,---,0.00,VWS V14.00,2013-04-06 08:22:00,
2013-04-06 03:27:00,29.7,28.2,30.01,NNE,15,0.0,3.0,94,0.00,,---,0.00,VWS V14.00,2013-04-06 08:27:00,
2013-04-06 03:32:00,29.7,28.2,30.01,East,91,0.0,3.0,94,0.00,,---,0.00,VWS V14.00,2013-04-06 08:32:00,
2013-04-06 03:37:00,29.7,28.2,30.01,NW,310,2.0,3.0,94,0.00,,---,0.00,VWS V14.00,2013-04-06 08:37:00,
2013-04-06 03:42:00,29.7,28.2,30.00,ESE,111,0.0,5.0,94,0.00,,---,0.00,VWS V14.00,2013-04-06 08:42:00,
2013-04-06 03:47:00,29.7,28.2,30.00,NW,312,0.0,5.0,94,0.00,,---,0.00,VWS V14.00,2013-04-06 08:47:00,
2013-04-06 03:52:00,29.7,28.2,30.00,SSE,157,0.0,4.0,94,0.00,,---,0.00,VWS V14.00,2013-04-06 08:52:00,
2013-04-06 03:57:00,29.7,28.2,30.00,SSE,153,0.0,4.0,94,0.00,,---,0.00,VWS V14.00,2013-04-06 08:57:00,
2013-04-06 04:02:00,29.7,28.2,30.00,SE,138,0.0,4.0,94,0.00,,---,0.00,VWS V14.00,2013-04-06 09:02:00,
2013-04-06 04:07:00,29.7,28.2,29.99,SSE,153,4.0,4.0,94,0.00,,---,0.00,VWS V14.00,2013-04-06 09:07:00,
2013-04-06 04:12:00,29.7,28.2,29.99,SE,144,1.0,4.0,94,0.00,,---,0.00,VWS V14.00,2013-04-06 09:12:00,
2013-04-06 04:17:00,29.7,28.2,29.99,SE,137,2.0,4.0,94,0.00,,---,0.00,VWS V14.00,2013-04-06 09:17:00,
2013-04-06 04:22:00,29.6,28.1,29.98,SE,134,1.0,2.0,94,0.00,,---,0.00,VWS V14.00,2013-04-06 09:22:00,
2013-04-06 04:27:00,29.6,28.1,29.97,NW,305,0.0,5.0,94,0.00,,---,0.00,VWS V14.00,2013-04-06 09:27:00,
2013-04-06 04:32:00,29.6,28.1,29.97,NE,34,0.0,6.0,94,0.00,,---,0.00,VWS V14.00,2013-04-06 09:32:00,
2013-04-06 04:37:00,29.6,28.1,29.98,WNW,291,2.0,3.0,94,0.00,,---,0.00,VWS V14.00,2013-04-06 09:37:00,
2013-04-06 04:42:00,29.5,28.0,29.97,SE,140,0.0,3.0,94,0.00,,---,0.00,VWS V14.00,2013-04-06 09:42:00,
2013-04-06 04:47:00,29.5,28.0,29.97,SE,140,0.0,3.0,94,0.00,,---,0.00,VWS V14.00,2013-04-06 09:47:00,
2013-04-06 04:52:00,29.5,28.0,29.97,SE,141,2.0,3.0,94,0.00,,---,0.00,VWS V14.00,2013-04-06 09:52:00,
2013-04-06 04:57:00,29.5,28.0,29.96,SSE,159,1.0,3.0,94,0.00,,---,0.00,VWS V14.00,2013-04-06 09:57:00,
2013-04-06 05:02:00,29.4,27.9,29.96,West,273,0.0,4.0,94,0.00,,---,0.00,VWS V14.00,2013-04-06 10:02:00,
2013-04-06 05:07:00,29.4,27.9,29.96,NW,307,2.0,7.0,94,0.00,,---,0.00,VWS V14.00,2013-04-06 10:07:00,
2013-04-06 05:12:00,29.3,27.8,29.96,SSE,166,2.0,7.0,94,0.00,,---,0.00,VWS V14.00,2013-04-06 10:12:00,
2013-04-06 05:17:00,29.3,27.8,29.95,West,279,0.0,7.0,94,0.00,,---,0.00,VWS V14.00,2013-04-06 10:17:00,
2013-04-06 05:22:00,29.2,27.7,29.95,SE,126,4.0,9.0,94,0.00,,---,0.00,VWS V14.00,2013-04-06 10:22:00,
2013-04-06 05:27:00,29.2,27.7,29.94,SSW,210,3.0,9.0,94,0.00,,---,0.00,VWS V14.00,2013-04-06 10:27:00,
2013-04-06 05:32:00,29.2,27.7,29.94,ESE,123,0.0,10.0,94,0.00,,---,0.00,VWS V14.00,2013-04-06 10:32:00,
2013-04-06 05:37:00,29.2,27.7,29.93,SE,143,0.0,2.0,94,0.00,,---,0.00,VWS V14.00,2013-04-06 10:37:00,
2013-04-06 05:42:00,29.1,27.6,29.93,WSW,243,0.0,3.0,94,0.00,,---,0.00,VWS V14.00,2013-04-06 10:42:00,
2013-04-06 05:47:00,29.1,27.6,29.93,South,180,2.0,4.0,94,0.00,,---,0.00,VWS V14.00,2013-04-06 10:47:00,
2013-04-06 05:52:00,29.1,27.6,29.93,East,81,0.0,8.0,94,0.00,,---,0.00,VWS V14.00,2013-04-06 10:52:00,
2013-04-06 05:57:00,29.0,27.2,29.92,West,265,0.0,8.0,93,0.00,,---,0.00,VWS V14.00,2013-04-06 10:57:00,
2013-04-06 06:02:00,29.0,27.2,29.92,SSE,156,1.0,11.0,93,0.00,,---,0.00,VWS V14.00,2013-04-06 11:02:00,
2013-04-06 06:07:00,29.0,27.2,29.92,SSE,152,0.0,5.0,93,0.00,,---,0.00,VWS V14.00,2013-04-06 11:07:00,
2013-04-06 06:13:00,28.9,27.1,29.92,North,9,4.0,5.0,93,0.00,,---,0.00,VWS V14.00,2013-04-06 11:13:00,
2013-04-06 06:18:00,28.9,27.1,29.92,SE,132,1.0,7.0,93,0.00,,---,0.00,VWS V14.00,2013-04-06 11:18:00,
2013-04-06 06:23:00,28.9,27.1,29.92,ESE,110,1.0,5.0,93,0.00,,---,0.00,VWS V14.00,2013-04-06 11:23:00,
2013-04-06 06:28:00,29.0,27.2,29.92,SE,133,1.0,9.0,93,0.00,,---,0.00,VWS V14.00,2013-04-06 11:28:00,
2013-04-06 06:33:00,29.0,27.2,29.92,SSE,150,5.0,9.0,93,0.00,,---,0.00,VWS V14.00,2013-04-06 11:33:00,
2013-04-06 06:38:00,29.0,27.2,29.92,SE,136,6.0,7.0,93,0.00,,---,0.00,VWS V14.00,2013-04-06 11:38:00,
2013-04-06 06:43:00,29.0,27.2,29.91,SSE,153,1.0,8.0,93,0.00,,---,0.00,VWS V14.00,2013-04-06 11:43:00,
2013-04-06 06:48:00,29.0,27.2,29.91,SSE,157,0.0,8.0,93,0.00,,---,0.00,VWS V14.00,2013-04-06 11:48:00,
2013-04-06 06:53:00,29.0,27.2,29.91,SE,140,1.0,6.0,93,0.00,,---,0.00,VWS V14.00,2013-04-06 11:53:00,
2013-04-06 06:58:00,29.0,27.2,29.91,SSE,147,4.0,9.0,93,0.00,,---,0.00,VWS V14.00,2013-04-06 11:58:00,
2013-04-06 07:03:00,29.1,27.3,29.90,ESE,110,0.0,9.0,93,0.00,,---,0.00,VWS V14.00,2013-04-06 12:03:00,
2013-04-06 07:08:00,29.1,27.3,29.90,ESE,117,0.0,5.0,93,0.00,,---,0.00,VWS V14.00,2013-04-06 12:08:00,
2013-04-06 07:13:00,29.1,27.3,29.90,SSE,163,6.0,7.0,93,0.00,,---,0.00,VWS V14.00,2013-04-06 12:13:00,
2013-04-06 07:18:00,29.2,27.2,29.90,NNE,16,0.0,9.0,92,0.00,,---,0.00,VWS V14.00,2013-04-06 12:18:00,
2013-04-06 07:23:00,29.2,27.2,29.90,SE,143,6.0,6.0,92,0.00,,---,0.00,VWS V14.00,2013-04-06 12:23:00,
2013-04-06 07:28:00,29.3,27.3,29.89,NW,317,3.0,10.0,92,0.00,,---,0.00,VWS V14.00,2013-04-06 12:28:00,
2013-04-06 07:33:00,29.3,27.3,29.89,SE,125,1.0,10.0,92,0.00,,---,0.00,VWS V14.00,2013-04-06 12:33:00,
2013-04-06 07:38:00,29.4,27.4,29.89,SW,223,2.0,8.0,92,0.00,,---,0.00,VWS V14.00,2013-04-06 12:38:00,
2013-04-06 07:43:00,29.4,27.4,29.89,SE,142,2.0,8.0,92,0.00,,---,0.00,VWS V14.00,2013-04-06 12:43:00,
2013-04-06 07:48:00,29.5,27.5,29.89,WSW,240,0.0,8.0,92,0.00,,---,0.00,VWS V14.00,2013-04-06 12:48:00,
2013-04-06 07:53:00,29.6,27.6,29.89,South,184,6.0,6.0,92,0.00,,---,0.00,VWS V14.00,2013-04-06 12:53:00,
2013-04-06 07:58:00,29.7,27.7,29.89,SE,134,11.0,13.0,92,0.00,,---,0.00,VWS V14.00,2013-04-06 12:58:00,
2013-04-06 08:03:00,29.8,27.8,29.88,SW,215,2.0,13.0,92,0.00,,---,0.00,VWS V14.00,2013-04-06 13:03:00,
2013-04-06 08:08:00,29.9,27.9,29.88,SSE,155,3.0,6.0,92,0.00,,---,0.00,VWS V14.00,2013-04-06 13:08:00,
2013-04-06 08:13:00,29.9,27.9,29.88,NE,45,2.0,9.0,92,0.00,,---,0.00,VWS V14.00,2013-04-06 13:13:00,
2013-04-06 08:18:00,30.0,28.0,29.88,SE,140,0.0,10.0,92,0.00,,---,0.00,VWS V14.00,2013-04-06 13:18:00,
2013-04-06 08:23:00,30.0,28.0,29.88,SE,127,4.0,6.0,92,0.00,,---,0.00,VWS V14.00,2013-04-06 13:23:00,
2013-04-06 08:28:00,30.1,28.1,29.88,NE,40,4.0,10.0,92,0.00,,---,0.00,VWS V14.00,2013-04-06 13:28:00,
2013-04-06 08:33:00,30.1,28.1,29.88,SSW,204,1.0,10.0,92,0.00,,---,0.00,VWS V14.00,2013-04-06 13:33:00,
2013-04-06 08:38:00,30.2,28.2,29.88,SE,140,5.0,6.0,92,0.00,,---,0.00,VWS V14.00,2013-04-06 13:38:00,
2013-04-06 08:43:00,30.2,28.2,29.87,SSE,165,4.0,10.0,92,0.00,,---,0.00,VWS V14.00,2013-04-06 13:43:00,
2013-04-06 08:48:00,30.3,28.5,29.87,NW,309,3.0,10.0,93,0.00,,---,0.00,VWS V14.00,2013-04-06 13:48:00,
2013-04-06 08:53:00,30.3,28.5,29.87,South,174,5.0,10.0,93,0.00,,---,0.00,VWS V14.00,2013-04-06 13:53:00,
2013-04-06 08:58:00,30.2,28.4,29.86,South,170,0.0,14.0,93,0.00,,---,0.00,VWS V14.00,2013-04-06 13:58:00,
2013-04-06 09:03:00,30.3,28.5,29.86,WSW,247,1.0,1.0,93,0.00,,---,0.00,VWS V14.00,2013-04-06 14:03:00,
2013-04-06 09:08:00,30.3,28.5,29.85,SE,128,0.0,10.0,93,0.00,,---,0.00,VWS V14.00,2013-04-06 14:08:00,
2013-04-06 09:13:00,30.3,28.5,29.85,SE,144,2.0,10.0,93,0.00,,---,0.00,VWS V14.00,2013-04-06 14:13:00,
2013-04-06 09:18:00,30.3,28.5,29.84,SE,129,0.0,0.0,93,0.00,,---,0.00,VWS V14.00,2013-04-06 14:18:00,
2013-04-06 09:23:00,30.3,28.5,29.84,SE,141,0.0,12.0,93,0.00,,---,0.00,VWS V14.00,2013-04-06 14:23:00,
2013-04-06 09:28:00,30.3,28.5,29.84,SSE,156,2.0,12.0,93,0.00,,---,0.00,VWS V14.00,2013-04-06 14:28:00,
2013-04-06 09:33:00,30.4,28.4,29.83,South,190,2.0,4.0,92,0.00,,---,0.00,VWS V14.00,2013-04-06 14:33:00,
2013-04-06 09:38:00,30.6,28.8,29.83,SE,126,3.0,7.0,93,0.00,,---,0.00,VWS V14.00,2013-04-06 14:38:00,
2013-04-06 09:43:00,30.7,28.9,29.83,SSE,154,0.0,7.0,93,0.00,,---,0.00,VWS V14.00,2013-04-06 14:43:00,
2013-04-06 09:48:00,30.8,28.8,29.82,NNW,338,0.0,1.0,92,0.00,,---,0.00,VWS V14.00,2013-04-06 14:48:00,
2013-04-06 09:53:00,30.8,28.8,29.82,NE,44,0.0,9.0,92,0.00,,---,0.00,VWS V14.00,2013-04-06 14:53:00,
2013-04-06 09:59:00,31.0,29.0,29.82,SE,129,1.0,10.0,92,0.00,,---,0.00,VWS V14.00,2013-04-06 14:59:00,
2013-04-06 10:04:00,31.1,29.0,29.81,ESE,121,1.0,1.0,92,0.00,,---,0.00,VWS V14.00,2013-04-06 15:04:00,
2013-04-06 10:09:00,31.4,29.4,29.81,SW,217,2.0,5.0,92,0.00,,---,0.00,VWS V14.00,2013-04-06 15:09:00,
2013-04-06 10:14:00,31.6,29.5,29.80,SE,138,0.0,5.0,92,0.00,,---,0.00,VWS V14.00,2013-04-06 15:14:00,
2013-04-06 10:19:00,31.9,29.6,29.80,SE,141,6.0,6.0,91,0.00,,---,0.00,VWS V14.00,2013-04-06 15:19:00,
2013-04-06 10:24:00,32.0,29.7,29.79,SSE,157,4.0,11.0,91,0.00,,---,0.00,VWS V14.00,2013-04-06 15:24:00,
2013-04-06 10:29:00,32.3,30.0,29.79,South,185,4.0,11.0,91,0.00,,---,0.00,VWS V14.00,2013-04-06 15:29:00,
2013-04-06 10:34:00,32.5,29.9,29.79,ESE,119,0.0,3.0,90,0.00,,---,0.00,VWS V14.00,2013-04-06 15:34:00,
2013-04-06 10:39:00,32.6,30.0,29.79,SE,143,5.0,10.0,90,0.00,,---,0.00,VWS V14.00,2013-04-06 15:39:00,
2013-04-06 10:44:00,32.8,30.2,29.78,South,178,7.0,13.0,90,0.00,,---,0.00,VWS V14.00,2013-04-06 15:44:00,
2013-04-06 10:49:00,32.9,30.3,29.78,SSW,192,4.0,4.0,90,0.00,,---,0.00,VWS V14.00,2013-04-06 15:49:00,
2013-04-06 10:54:00,33.0,29.8,29.78,SSE,151,1.0,9.0,88,0.00,,---,0.00,VWS V14.00,2013-04-06 15:54:00,
2013-04-06 10:59:00,33.0,30.1,29.78,SE,133,3.0,12.0,89,0.00,,---,0.00,VWS V14.00,2013-04-06 15:59:00,
2013-04-06 11:04:00,33.1,30.2,29.77,SSE,161,4.0,7.0,89,0.00,,---,0.00,VWS V14.00,2013-04-06 16:04:00,
2013-04-06 11:09:00,33.0,29.8,29.77,SE,135,11.0,11.0,88,0.00,,---,0.00,VWS V14.00,2013-04-06 16:09:00,
2013-04-06 11:14:00,33.0,29.8,29.76,South,174,1.0,11.0,88,0.00,,---,0.00,VWS V14.00,2013-04-06 16:14:00,
2013-04-06 11:19:00,33.1,29.9,29.76,SSE,167,3.0,15.0,88,0.00,,---,0.01,VWS V14.00,2013-04-06 16:19:00,
2013-04-06 11:24:00,33.2,30.0,29.76,SE,132,3.0,15.0,88,0.00,,---,0.01,VWS V14.00,2013-04-06 16:24:00,
2013-04-06 11:29:00,33.3,30.1,29.75,ESE,121,1.0,15.0,88,0.00,,---,0.01,VWS V14.00,2013-04-06 16:29:00,
2013-04-06 11:34:00,33.3,29.9,29.75,East,96,4.0,4.0,87,0.00,,---,0.01,VWS V14.00,2013-04-06 16:34:00,
2013-04-06 11:39:00,33.4,30.0,29.74,South,182,1.0,6.0,87,0.00,,---,0.01,VWS V14.00,2013-04-06 16:39:00,
2013-04-06 11:45:00,33.5,29.8,29.74,East,101,2.0,12.0,86,0.00,,---,0.01,VWS V14.00,2013-04-06 16:45:00,
2013-04-06 11:50:00,33.6,29.9,29.74,North,5,3.0,6.0,86,0.00,,---,0.01,VWS V14.00,2013-04-06 16:50:00,
2013-04-06 11:55:00,33.7,30.2,29.73,SSE,162,7.0,7.0,87,0.00,,---,0.01,VWS V14.00,2013-04-06 16:55:00,
2013-04-06 12:00:00,33.8,30.1,29.73,SE,138,0.0,9.0,86,0.00,,---,0.01,VWS V14.00,2013-04-06 17:00:00,
2013-04-06 12:05:00,33.9,29.9,29.73,NW,316,5.0,7.0,85,0.00,,---,0.01,VWS V14.00,2013-04-06 17:05:00,
2013-04-06 12:10:00,34.0,30.0,29.72,SE,134,3.0,8.0,85,0.00,,---,0.01,VWS V14.00,2013-04-06 17:10:00,
2013-04-06 12:15:00,34.2,30.2,29.72,SE,136,3.0,8.0,85,0.00,,---,0.02,VWS V14.00,2013-04-06 17:15:00,
2013-04-06 12:20:00,34.4,30.4,29.72,SSE,168,1.0,8.0,85,0.00,,---,0.02,VWS V14.00,2013-04-06 17:20:00,
2013-04-06 12:25:00,34.8,30.5,29.72,South,182,4.0,14.0,84,0.00,,---,0.02,VWS V14.00,2013-04-06 17:25:00,
2013-04-06 12:30:00,35.2,30.6,29.71,ESE,118,10.0,14.0,83,0.00,,---,0.02,VWS V14.00,2013-04-06 17:30:00,
2013-04-06 12:35:00,35.3,30.7,29.71,WSW,241,2.0,8.0,83,0.00,,---,0.02,VWS V14.00,2013-04-06 17:35:00,
2013-04-06 12:40:00,35.4,30.8,29.71,SE,140,0.0,9.0,83,0.00,,---,0.02,VWS V14.00,2013-04-06 17:40:00,
2013-04-06 12:53:00,35.6,31.0,29.70,SSE,155,2.0,9.0,83,0.00,,---,0.03,VWS V14.00,2013-04-06 17:53:00,
2013-04-06 12:58:00,35.6,31.0,29.69,SSE,163,0.0,10.0,83,0.00,,---,0.03,VWS V14.00,2013-04-06 17:58:00,
2013-04-06 13:03:00,35.7,31.0,29.69,South,178,7.0,10.0,83,0.00,,---,0.03,VWS V14.00,2013-04-06 18:03:00,
2013-04-06 13:08:00,35.7,31.0,29.69,SW,219,3.0,11.0,83,0.00,,---,0.03,VWS V14.00,2013-04-06 18:08:00,
2013-04-06 13:13:00,35.7,31.0,29.68,SSE,165,1.0,11.0,83,0.00,,---,0.03,VWS V14.00,2013-04-06 18:13:00,
2013-04-06 13:18:00,35.9,31.2,29.68,West,268,1.0,1.0,83,0.00,,---,0.04,VWS V14.00,2013-04-06 18:18:00,
2013-04-06 13:23:00,36.1,31.1,29.68,SSE,165,0.0,6.0,82,0.00,,---,0.04,VWS V14.00,2013-04-06 18:23:00,
2013-04-06 13:28:00,36.3,31.3,29.68,SE,145,4.0,7.0,82,0.00,,---,0.04,VWS V14.00,2013-04-06 18:28:00,
2013-04-06 13:33:00,36.5,31.5,29.67,SSE,147,0.0,0.0,82,0.00,,---,0.04,VWS V14.00,2013-04-06 18:33:00,
2013-04-06 13:39:00,36.8,31.8,29.67,SSE,151,4.0,10.0,82,0.00,,---,0.05,VWS V14.00,2013-04-06 18:39:00,
2013-04-06 13:44:00,36.9,31.6,29.67,SE,126,7.0,11.0,81,0.00,,---,0.05,VWS V14.00,2013-04-06 18:44:00,
2013-04-06 13:49:00,36.9,31.6,29.66,East,95,2.0,4.0,81,0.00,,---,0.05,VWS V14.00,2013-04-06 18:49:00,
2013-04-06 13:54:00,37.0,31.7,29.66,SE,138,0.0,9.0,81,0.00,,---,0.05,VWS V14.00,2013-04-06 18:54:00,
2013-04-06 13:59:00,36.9,32.2,29.65,SE,138,0.0,9.0,83,0.00,,---,0.06,VWS V14.00,2013-04-06 18:59:00,
2013-04-06 14:04:00,36.9,32.5,29.65,SE,138,3.0,3.0,84,0.00,,---,0.06,VWS V14.00,2013-04-06 19:04:00,
2013-04-06 14:09:00,37.0,32.6,29.65,SSE,158,0.0,8.0,84,0.00,,---,0.06,VWS V14.00,2013-04-06 19:09:00,
2013-04-06 14:14:00,37.1,33.0,29.65,West,272,1.0,8.0,85,0.04,,---,0.07,VWS V14.00,2013-04-06 19:14:00,
2013-04-06 14:19:00,37.2,33.1,29.65,SE,135,0.0,5.0,85,0.04,,---,0.07,VWS V14.00,2013-04-06 19:19:00,
2013-04-06 14:24:00,37.1,32.7,29.64,WNW,292,0.0,5.0,84,0.04,,---,0.07,VWS V14.00,2013-04-06 19:24:00,
2013-04-06 14:29:00,37.2,32.8,29.64,SE,136,0.0,5.0,84,0.04,,---,0.08,VWS V14.00,2013-04-06 19:29:00,
2013-04-06 14:34:00,37.3,32.9,29.64,SSE,155,3.0,4.0,84,0.04,,---,0.08,VWS V14.00,2013-04-06 19:34:00,
2013-04-06 14:39:00,37.3,32.9,29.63,SW,234,0.0,4.0,84,0.05,,---,0.09,VWS V14.00,2013-04-06 19:39:00,
2013-04-06 14:44:00,37.4,33.0,29.63,South,182,0.0,4.0,84,0.05,,---,0.09,VWS V14.00,2013-04-06 19:44:00,
2013-04-06 14:49:00,37.5,33.4,29.63,South,182,0.0,0.0,85,0.06,,---,0.10,VWS V14.00,2013-04-06 19:49:00,
2013-04-06 14:54:00,37.6,33.8,29.63,South,182,0.0,0.0,86,0.07,,---,0.11,VWS V14.00,2013-04-06 19:54:00,
2013-04-06 14:59:00,37.6,33.8,29.63,South,178,0.0,4.0,86,0.07,,---,0.11,VWS V14.00,2013-04-06 19:59:00,
2013-04-06 15:04:00,37.6,32.9,29.62,ESE,117,0.0,3.0,83,0.06,,---,0.12,VWS V14.00,2013-04-06 20:04:00,
2013-04-06 15:10:00,37.8,33.1,29.62,SE,146,0.0,5.0,83,0.06,,---,0.12,VWS V14.00,2013-04-06 20:10:00,
2013-04-06 15:15:00,37.9,33.5,29.62,SSE,157,0.0,5.0,84,0.06,,---,0.12,VWS V14.00,2013-04-06 20:15:00,
2013-04-06 15:20:00,37.9,33.5,29.61,SE,131,0.0,0.0,84,0.05,,---,0.13,VWS V14.00,2013-04-06 20:20:00,
2013-04-06 15:25:00,37.9,34.1,29.61,SE,131,0.0,0.0,86,0.05,,---,0.13,VWS V14.00,2013-04-06 20:25:00,
2013-04-06 15:30:00,37.8,34.3,29.62,SE,131,0.0,0.0,87,0.05,,---,0.14,VWS V14.00,2013-04-06 20:30:00,
2013-04-06 15:35:00,37.7,34.5,29.61,SE,131,0.0,0.0,88,0.05,,---,0.14,VWS V14.00,2013-04-06 20:35:00,
2013-04-06 15:40:00,37.7,34.8,29.61,SE,131,0.0,0.0,89,0.05,,---,0.14,VWS V14.00,2013-04-06 20:40:00,
2013-04-06 15:45:00,37.7,35.0,29.61,SE,131,0.0,0.0,90,0.04,,---,0.15,VWS V14.00,2013-04-06 20:45:00,
2013-04-06 15:50:00,37.6,34.9,29.61,SE,131,0.0,0.0,90,0.04,,---,0.15,VWS V14.00,2013-04-06 20:50:00,
2013-04-06 15:55:00,37.5,34.8,29.60,SE,131,0.0,0.0,90,0.04,,---,0.15,VWS V14.00,2013-04-06 20:55:00,
2013-04-06 16:00:00,37.4,34.7,29.60,SE,131,0.0,0.0,90,0.00,,---,0.15,VWS V14.00,2013-04-06 21:00:00,
2013-04-06 16:05:00,37.4,35.0,29.59,SE,131,0.0,0.0,91,0.00,,---,0.16,VWS V14.00,2013-04-06 21:05:00,
2013-04-06 16:10:00,37.4,35.0,29.60,SE,131,0.0,0.0,91,0.00,,---,0.16,VWS V14.00,2013-04-06 21:10:00,
2013-04-06 16:15:00,37.4,35.0,29.59,SE,131,0.0,0.0,91,0.00,,---,0.16,VWS V14.00,2013-04-06 21:15:00,
2013-04-06 16:20:00,37.4,35.0,29.59,SE,131,0.0,0.0,91,0.00,,---,0.16,VWS V14.00,2013-04-06 21:20:00,
2013-04-06 16:25:00,37.5,35.1,29.59,SE,131,0.0,0.0,91,0.00,,---,0.16,VWS V14.00,2013-04-06 21:25:00,
2013-04-06 16:30:00,37.5,35.1,29.59,SE,131,0.0,0.0,91,0.00,,---,0.16,VWS V14.00,2013-04-06 21:30:00,
2013-04-06 16:35:00,37.5,35.1,29.59,SE,131,0.0,0.0,91,0.00,,---,0.16,VWS V14.00,2013-04-06 21:35:00,
2013-04-06 16:40:00,37.5,35.4,29.59,SE,131,0.0,0.0,92,0.00,,---,0.17,VWS V14.00,2013-04-06 21:40:00,
2013-04-06 16:45:00,37.4,35.3,29.58,SE,131,0.0,0.0,92,0.00,,---,0.17,VWS V14.00,2013-04-06 21:45:00,
2013-04-06 16:50:00,37.3,35.2,29.58,SE,131,0.0,0.0,92,0.00,,---,0.17,VWS V14.00,2013-04-06 21:50:00,
2013-04-06 16:55:00,37.2,35.1,29.58,SE,131,0.0,0.0,92,0.00,,---,0.17,VWS V14.00,2013-04-06 21:55:00,
2013-04-06 17:00:00,37.0,34.9,29.57,SE,131,0.0,0.0,92,0.00,,---,0.17,VWS V14.00,2013-04-06 22:00:00,
2013-04-06 17:05:00,36.9,34.8,29.56,SE,131,0.0,0.0,92,0.00,,---,0.17,VWS V14.00,2013-04-06 22:05:00,
2013-04-06 17:10:00,36.8,35.0,29.56,SE,131,0.0,0.0,93,0.00,,---,0.17,VWS V14.00,2013-04-06 22:10:00,
2013-04-06 17:15:00,36.6,34.8,29.57,SE,131,0.0,0.0,93,0.00,,---,0.17,VWS V14.00,2013-04-06 22:15:00,
2013-04-06 17:20:00,36.6,34.8,29.57,SE,131,0.0,0.0,93,0.00,,---,0.18,VWS V14.00,2013-04-06 22:20:00,
2013-04-06 17:25:00,36.6,34.8,29.57,SE,131,0.0,0.0,93,0.00,,---,0.18,VWS V14.00,2013-04-06 22:25:00,
2013-04-06 17:30:00,36.5,34.7,29.57,SE,131,0.0,0.0,93,0.00,,---,0.18,VWS V14.00,2013-04-06 22:30:00,
2013-04-06 17:35:00,36.5,34.7,29.58,SE,131,0.0,0.0,93,0.04,,---,0.19,VWS V14.00,2013-04-06 22:35:00,
2013-04-06 17:40:00,36.6,35.0,29.58,SE,131,0.0,0.0,94,0.04,,---,0.19,VWS V14.00,2013-04-06 22:40:00,
2013-04-06 17:45:00,36.5,34.9,29.58,SE,131,0.0,0.0,94,0.04,,---,0.19,VWS V14.00,2013-04-06 22:45:00,
2013-04-06 17:50:00,36.4,34.6,29.58,SE,131,0.0,0.0,93,0.04,,---,0.19,VWS V14.00,2013-04-06 22:50:00,
2013-04-06 17:55:00,36.2,34.4,29.58,SE,131,0.0,0.0,93,0.00,,---,0.19,VWS V14.00,2013-04-06 22:55:00,
2013-04-06 18:00:00,36.1,34.3,29.58,SE,131,0.0,0.0,93,0.00,,---,0.20,VWS V14.00,2013-04-06 23:00:00,
2013-04-06 18:05:00,36.0,34.4,29.58,SE,131,0.0,0.0,94,0.00,,---,0.20,VWS V14.00,2013-04-06 23:05:00,
2013-04-06 18:10:00,35.9,34.3,29.58,SE,131,0.0,0.0,94,0.00,,---,0.20,VWS V14.00,2013-04-06 23:10:00,
2013-04-06 18:15:00,35.8,34.2,29.58,SE,131,0.0,0.0,94,0.04,,---,0.21,VWS V14.00,2013-04-06 23:15:00,
2013-04-06 18:20:00,35.7,34.2,29.57,SE,131,0.0,0.0,94,0.04,,---,0.21,VWS V14.00,2013-04-06 23:20:00,
2013-04-06 18:25:00,35.7,34.2,29.57,SE,131,0.0,0.0,94,0.04,,---,0.21,VWS V14.00,2013-04-06 23:25:00,
2013-04-06 18:30:00,35.6,34.0,29.57,SE,131,0.0,0.0,94,0.04,,---,0.21,VWS V14.00,2013-04-06 23:30:00,
2013-04-06 18:35:00,35.6,34.0,29.57,SE,131,0.0,0.0,94,0.00,,---,0.22,VWS V14.00,2013-04-06 23:35:00,
2013-04-06 18:40:00,35.5,34.2,29.57,SE,131,0.0,0.0,95,0.00,,---,0.22,VWS V14.00,2013-04-06 23:40:00,
2013-04-06 18:45:00,35.4,34.1,29.57,SE,131,0.0,0.0,95,0.00,,---,0.22,VWS V14.00,2013-04-06 23:45:00,
2013-04-06 18:50:00,35.3,34.0,29.57,SE,131,0.0,0.0,95,0.00,,---,0.22,VWS V14.00,2013-04-06 23:50:00,
2013-04-06 18:55:00,35.3,34.0,29.57,SE,131,0.0,0.0,95,0.00,,---,0.23,VWS V14.00,2013-04-06 23:55:00,
2013-04-06 19:00:00,35.3,34.0,29.57,SE,131,0.0,0.0,95,0.00,,---,0.23,VWS V14.00,2013-04-07 00:00:00,
2013-04-06 19:06:00,35.2,33.9,29.57,SE,131,0.0,0.0,95,0.00,,---,0.23,VWS V14.00,2013-04-07 00:06:00,
2013-04-06 19:11:00,35.2,33.9,29.57,SE,131,0.0,0.0,95,0.00,,---,0.23,VWS V14.00,2013-04-07 00:11:00,
2013-04-06 19:16:00,35.2,33.9,29.56,SE,131,0.0,0.0,95,0.00,,---,0.24,VWS V14.00,2013-04-07 00:16:00,
2013-04-06 19:21:00,35.2,33.9,29.56,SE,131,0.0,0.0,95,0.00,,---,0.24,VWS V14.00,2013-04-07 00:21:00,
2013-04-06 19:26:00,35.1,33.8,29.56,SE,131,0.0,0.0,95,0.00,,---,0.24,VWS V14.00,2013-04-07 00:26:00,
2013-04-06 19:31:00,35.0,33.7,29.56,SE,131,0.0,0.0,95,0.00,,---,0.24,VWS V14.00,2013-04-07 00:31:00,
2013-04-06 19:36:00,35.0,33.7,29.56,SE,131,0.0,0.0,95,0.00,,---,0.24,VWS V14.00,2013-04-07 00:36:00,
2013-04-06 19:41:00,34.9,33.6,29.56,SE,131,0.0,0.0,95,0.00,,---,0.25,VWS V14.00,2013-04-07 00:41:00,
2013-04-06 19:46:00,34.9,33.6,29.56,SE,131,0.0,0.0,95,0.00,,---,0.25,VWS V14.00,2013-04-07 00:46:00,
2013-04-06 19:51:00,34.8,33.5,29.56,SE,131,0.0,0.0,95,0.00,,---,0.25,VWS V14.00,2013-04-07 00:51:00,
2013-04-06 19:56:00,34.8,33.5,29.56,SE,131,0.0,0.0,95,0.04,,---,0.26,VWS V14.00,2013-04-07 00:56:00,
2013-04-06 20:01:00,34.8,33.5,29.56,SE,131,0.0,0.0,95,0.04,,---,0.26,VWS V14.00,2013-04-07 01:01:00,
2013-04-06 20:07:00,34.7,33.4,29.56,SE,131,0.0,0.0,95,0.06,,---,0.27,VWS V14.00,2013-04-07 01:07:00,
2013-04-06 20:12:00,34.7,33.7,29.56,SE,131,0.0,0.0,96,0.06,,---,0.27,VWS V14.00,2013-04-07 01:12:00,
2013-04-06 20:17:00,34.8,33.8,29.56,SE,131,0.0,0.0,96,0.05,,---,0.27,VWS V14.00,2013-04-07 01:17:00,
2013-04-06 20:22:00,34.7,33.7,29.56,SE,131,0.0,0.0,96,0.05,,---,0.28,VWS V14.00,2013-04-07 01:22:00,
2013-04-06 20:27:00,34.7,33.4,29.56,SE,131,0.0,0.0,95,0.05,,---,0.28,VWS V14.00,2013-04-07 01:27:00,
2013-04-06 20:32:00,34.6,33.3,29.56,SE,131,0.0,0.0,95,0.05,,---,0.29,VWS V14.00,2013-04-07 01:32:00,
2013-04-06 20:37:00,34.6,33.3,29.56,SE,131,0.0,0.0,95,0.05,,---,0.29,VWS V14.00,2013-04-07 01:37:00,
2013-04-06 20:42:00,34.5,33.2,29.56,SE,131,0.0,0.0,95,0.05,,---,0.30,VWS V14.00,2013-04-07 01:42:00,
2013-04-06 20:47:00,34.3,33.0,29.56,SE,131,0.0,0.0,95,0.05,,---,0.30,VWS V14.00,2013-04-07 01:47:00,
2013-04-06 20:52:00,34.1,32.8,29.56,SE,131,0.0,0.0,95,0.05,,---,0.30,VWS V14.00,2013-04-07 01:52:00,
2013-04-06 20:57:00,33.9,32.6,29.56,SE,131,0.0,0.0,95,0.04,,---,0.30,VWS V14.00,2013-04-07 01:57:00,
2013-04-06 21:02:00,33.7,32.4,29.56,SE,131,0.0,0.0,95,0.00,,---,0.30,VWS V14.00,2013-04-07 02:02:00,
2013-04-06 21:07:00,33.5,32.2,29.56,SE,131,0.0,0.0,95,0.00,,---,0.30,VWS V14.00,2013-04-07 02:07:00,
2013-04-06 21:12:00,33.4,32.1,29.56,SE,131,0.0,0.0,95,0.00,,---,0.30,VWS V14.00,2013-04-07 02:12:00,
2013-04-06 21:17:00,33.3,32.0,29.56,SE,131,0.0,0.0,95,0.00,,---,0.30,VWS V14.00,2013-04-07 02:17:00,
2013-04-06 21:22:00,33.2,31.9,29.56,SE,131,0.0,0.0,95,0.00,,---,0.30,VWS V14.00,2013-04-07 02:22:00,
2013-04-06 21:27:00,33.1,31.8,29.56,SE,131,0.0,0.0,95,0.00,,---,0.30,VWS V14.00,2013-04-07 02:27:00,
2013-04-06 21:32:00,33.0,31.7,29.56,SE,131,0.0,0.0,95,0.00,,---,0.30,VWS V14.00,2013-04-07 02:32:00,
2013-04-06 21:37:00,33.0,32.0,29.56,SE,131,0.0,0.0,96,0.00,,---,0.30,VWS V14.00,2013-04-07 02:37:00,
2013-04-06 21:47:00,32.9,31.9,29.56,SE,131,0.0,0.0,96,0.00,,---,0.30,VWS V14.00,2013-04-07 02:47:00,
2013-04-06 21:52:00,32.8,31.8,29.56,SE,131,0.0,0.0,96,0.00,,---,0.30,VWS V14.00,2013-04-07 02:52:00,
2013-04-06 21:57:00,32.8,31.8,29.56,SE,131,0.0,0.0,96,0.00,,---,0.30,VWS V14.00,2013-04-07 02:57:00,
2013-04-06 22:02:00,32.8,31.8,29.56,SE,131,0.0,0.0,96,0.00,,---,0.30,VWS V14.00,2013-04-07 03:02:00,
2013-04-06 22:07:00,32.8,31.8,29.56,South,174,0.0,1.0,96,0.00,,---,0.30,VWS V14.00,2013-04-07 03:07:00,
2013-04-06 22:12:00,32.8,31.8,29.57,South,174,0.0,1.0,96,0.00,,---,0.30,VWS V14.00,2013-04-07 03:12:00,
2013-04-06 22:17:00,32.8,31.8,29.56,ESE,116,0.0,1.0,96,0.00,,---,0.30,VWS V14.00,2013-04-07 03:17:00,
2013-04-06 22:22:00,32.8,31.8,29.56,SSW,196,5.0,5.0,96,0.00,,---,0.30,VWS V14.00,2013-04-07 03:22:00,
2013-04-06 22:27:00,32.8,31.8,29.57,East,87,0.0,5.0,96,0.00,,---,0.30,VWS V14.00,2013-04-07 03:27:00,
2013-04-06 22:32:00,32.8,31.8,29.57,North,10,0.0,5.0,96,0.00,,---,0.30,VWS V14.00,2013-04-07 03:32:00,
2013-04-06 22:37:00,32.8,31.8,29.57,SW,235,0.0,4.0,96,0.00,,---,0.30,VWS V14.00,2013-04-07 03:37:00,
2013-04-06 22:42:00,32.7,31.7,29.57,WNW,296,0.0,4.0,96,0.00,,---,0.30,VWS V14.00,2013-04-07 03:42:00,
2013-04-06 22:47:00,32.7,31.7,29.57,West,276,2.0,4.0,96,0.00,,---,0.30,VWS V14.00,2013-04-07 03:47:00,
2013-04-06 22:52:00,32.6,31.6,29.56,West,265,0.0,5.0,96,0.00,,---,0.30,VWS V14.00,2013-04-07 03:52:00,
2013-04-06 22:57:00,32.6,31.6,29.57,NNW,333,1.0,5.0,96,0.00,,---,0.30,VWS V14.00,2013-04-07 03:57:00,
2013-04-06 23:00:00,32.6,31.6,29.57,WNW,290,2.0,5.0,96,0.00,,---,0.30,VWS V14.00,2013-04-07 04:00:00,
2013-04-06 23:05:00,32.6,31.6,29.57,NE,39,2.0,2.0,96,0.00,,---,0.30,VWS V14.00,2013-04-07 04:05:00,
2013-04-06 23:10:00,32.5,31.5,29.57,NNW,337,0.0,2.0,96,0.00,,---,0.30,VWS V14.00,2013-04-07 04:10:00,
2013-04-06 23:15:00,32.5,31.5,29.57,NW,316,1.0,4.0,96,0.00,,---,0.30,VWS V14.00,2013-04-07 04:15:00,
2013-04-06 23:20:00,32.4,31.4,29.57,West,264,0.0,3.0,96,0.00,,---,0.30,VWS V14.00,2013-04-07 04:20:00,
2013-04-06 23:25:00,32.4,31.4,29.58,WSW,246,0.0,3.0,96,0.00,,---,0.30,VWS V14.00,2013-04-07 04:25:00,
2013-04-06 23:30:00,32.4,31.4,29.58,NW,311,0.0,3.0,96,0.00,,---,0.30,VWS V14.00,2013-04-07 04:30:00,
2013-04-06 23:35:00,32.3,31.3,29.57,WSW,250,0.0,2.0,96,0.00,,---,0.30,VWS V14.00,2013-04-07 04:35:00,
2013-04-06 23:40:00,32.2,31.2,29.58,West,259,1.0,4.0,96,0.00,,---,0.30,VWS V14.00,2013-04-07 04:40:00,
2013-04-06 23:45:00,32.2,31.2,29.58,SW,224,1.0,4.0,96,0.00,,---,0.30,VWS V14.00,2013-04-07 04:45:00,
2013-04-06 23:51:00,32.1,31.1,29.58,WNW,287,1.0,3.0,96,0.00,,---,0.30,VWS V14.00,2013-04-07 04:51:00,
2013-04-06 23:56:00,32.0,30.7,29.59,SSW,213,0.0,6.0,95,0.00,,---,0.30,VWS V14.00,2013-04-07 04:56:00,